Back to catalog

GLOBALSTAR M067

AliveCommunicationsLEO
NORAD 32263·PAYLOAD·🇺🇸 United States

Launched Oct 20, 2007 from Baikonur Cosmodrome

Loading…

Next Passes (next 24 hours)

TLE

FreshSource: Space-Track

Epoch: Sep 14, 2026, 09:46 UTC

1 32263U 07048A   26257.40714587 -.00000104  00000-0 -50274-4 0  9992
2 32263  51.9720 146.8170 0000461 198.2025 333.9394 12.40692435865860

Track GLOBALSTAR M067 in real time with AllMySat

Download on the App Store